Peoria, IL

12:54 PM CDT on March 25, 2017 (GMT -0500)
Greater Peoria Regional

Weather History for KPIA - September, 2014

Change the Weather History Date:

Tuesday, September 2, 2014

  Actual Average Record
Temperature  
Mean Temperature 76 °F 71 °F  
Max Temperature 84 °F 82 °F 100 °F (1913)
Min Temperature 68 °F 61 °F 44 °F (1946)
Degree Days  
Heating Degree Days 0 1  
Month to date heating degree days 0 1  
Since 1 July heating degree days 2 7  
Cooling Degree Days 11 7  
Month to date cooling degree days 23 14  
Year to date cooling degree days 1047 921  
Growing Degree Days 26 (Base 50)    
Moisture  
Dew Point 66 °F    
Average Humidity 69    
Maximum Humidity 90    
Minimum Humidity 48    
Precipitation  
Precipitation T in 0.11 in 2.66 in (1993)
Month to date precipitation T 0.23  
Year to date precipitation 30.08 25.18  
Snow  
Snow 0.00 in 0.00 in 0.00 in ()
Month to date snowfall 0.0 0.0  
Since 1 July snowfall 0.0 0.0  
Since 1 September snowfall 0.0 0.0  
Snow Depth 0.00 in    
Sea Level Pressure  
Sea Level Pressure 29.91 in    
Wind  
Wind Speed 5 mph (WSW)    
Max Wind Speed 12 mph    
Max Gust Speed 16 mph    
Visibility 10 miles    
Events Rain    
T = Trace of Precipitation, MM = Missing Value Source: NWS Daily Summary

Daily Weather History Graph

Daily Weather History Graph

Search for Another Location

Airport or City:

Trip Planner

Search our weather history database for the weather conditions in past years. The results will help you decide how hot, cold, wet, or windy it might be!

Date:

Astronomy

Sep. 02, 2014 Rise Set
Actual Time 6:26 AM CDT 7:29 PM CDT
Civil Twilight 5:58 AM CDT 7:57 PM CDT
Nautical Twilight 5:25 AM CDT 8:30 PM CDT
Astronomical Twilight 4:50 AM CDT 9:05 PM CDT
Moon 2:13 PM CDT (9/2) No Moon Set
Length of Visible Light 13h 58m
Length of Day
13h 02m
First Quarter, 53% of the Moon is Illuminated
Sep 2
First Quarter
Sep 8
Full
Sep 15
Last Quarter
Sep 24
New
Oct 1
First Quarter

Hourly Weather History & Observations

Time (CDT) Temp. Heat Index Dew Point Humidity Pressure Visibility Wind Dir Wind Speed Gust Speed Precip Events Conditions
12:54 AM 72.0 °F - 66.0 °F 81% 29.88 in 10.0 mi SW 4.6 mph - N/A   Partly Cloudy
1:54 AM 72.0 °F - 66.9 °F 84% 29.88 in 10.0 mi SSW 8.1 mph - N/A   Clear
2:38 AM 71.1 °F - 66.9 °F 87% 29.87 in 10.0 mi SSW 10.4 mph - 0.00 in Rain Light Rain
2:52 AM 71.6 °F - 68.0 °F 88% 29.88 in 10.0 mi WSW 5.8 mph - 0.00 in   Mostly Cloudy
2:54 AM 72.0 °F - 68.0 °F 87% 29.86 in 10.0 mi WSW 5.8 mph - 0.00 in   Mostly Cloudy
3:54 AM 72.0 °F - 68.0 °F 87% 29.88 in 10.0 mi SSW 6.9 mph - N/A   Overcast
4:19 AM 72.0 °F - 68.0 °F 87% 29.89 in 10.0 mi WSW 6.9 mph - N/A   Overcast
4:27 AM 71.6 °F - 68.0 °F 88% 29.89 in 10.0 mi SW 6.9 mph - N/A   Overcast
4:54 AM 72.0 °F - 68.0 °F 87% 29.88 in 10.0 mi WSW 9.2 mph - N/A   Overcast
5:38 AM 72.0 °F - 68.0 °F 87% 29.89 in 10.0 mi WSW 6.9 mph - N/A   Overcast
5:54 AM 72.0 °F - 68.0 °F 87% 29.88 in 10.0 mi WSW 6.9 mph - N/A   Overcast
6:54 AM 72.0 °F - 68.0 °F 87% 29.88 in 4.0 mi WSW 5.8 mph - 0.00 in Rain Light Rain
7:54 AM 73.0 °F - 68.0 °F 84% 29.90 in 10.0 mi SW 3.5 mph - 0.00 in   Overcast
8:01 AM 73.0 °F - 68.0 °F 84% 29.91 in 10.0 mi WSW 4.6 mph - N/A   Overcast
8:40 AM 73.9 °F - 68.0 °F 82% 29.91 in 10.0 mi WSW 5.8 mph - N/A   Mostly Cloudy
8:51 AM 73.4 °F - 68.0 °F 83% 29.92 in 10.0 mi WSW 5.8 mph - N/A   Scattered Clouds
8:54 AM 73.9 °F - 68.0 °F 82% 29.91 in 10.0 mi WSW 6.9 mph - N/A   Partly Cloudy
9:23 AM 75.0 °F - 68.0 °F 79% 29.93 in 10.0 mi SW 8.1 mph - N/A   Mostly Cloudy
9:54 AM 77.0 °F - 68.0 °F 74% 29.93 in 10.0 mi WSW 5.8 mph - N/A   Overcast
10:54 AM 77.0 °F - 68.0 °F 74% 29.93 in 10.0 mi WNW 4.6 mph - N/A   Mostly Cloudy
11:11 AM 79.0 °F - 68.0 °F 69% 29.94 in 10.0 mi NNW 4.6 mph - N/A   Mostly Cloudy
11:54 AM 80.1 °F 82.3 °F 66.9 °F 64% 29.92 in 10.0 mi Variable 6.9 mph - N/A   Scattered Clouds
12:54 PM 81.0 °F 83.0 °F 66.0 °F 60% 29.92 in 10.0 mi Variable 5.8 mph - N/A   Scattered Clouds
1:54 PM 82.9 °F 84.4 °F 64.0 °F 53% 29.93 in 10.0 mi West 8.1 mph - N/A   Partly Cloudy
2:54 PM 84.0 °F 84.9 °F 63.0 °F 49% 29.93 in 10.0 mi West 11.5 mph - N/A   Scattered Clouds
3:54 PM 84.0 °F 84.5 °F 62.1 °F 47% 29.91 in 10.0 mi West 8.1 mph - N/A   Partly Cloudy
4:54 PM 82.9 °F 83.7 °F 62.1 °F 49% 29.91 in 10.0 mi WNW 8.1 mph - N/A   Partly Cloudy
5:54 PM 82.0 °F 83.1 °F 63.0 °F 52% 29.90 in 10.0 mi Variable 4.6 mph - N/A   Clear
6:54 PM 80.1 °F 81.5 °F 63.0 °F 56% 29.91 in 10.0 mi Calm Calm - N/A   Clear
7:54 PM 73.0 °F - 64.0 °F 73% 29.91 in 10.0 mi Calm Calm - N/A   Clear
8:54 PM 72.0 °F - 64.9 °F 78% 29.94 in 10.0 mi Calm Calm - N/A   Clear
9:54 PM 71.1 °F - 64.9 °F 81% 29.96 in 10.0 mi Calm Calm - N/A   Partly Cloudy
10:54 PM 69.1 °F - 64.0 °F 84% 29.98 in 10.0 mi Calm Calm - N/A   Scattered Clouds
11:54 PM 69.1 °F - 64.0 °F 84% 29.99 in 10.0 mi Calm Calm - N/A   Scattered Clouds